K9ZOG Weather Reports


Display with metric or nautical units.
time (UTC)temp
F
wind
direction
speed
MPH
gust
MPH
rain 1hr
in
rain 24hr
in
rain mn
in
humidity
%
barometer
mb
20260509074913 56 199 4.0 6.0 0.00 0.00 0.00 82 1004.4
20260509074412 56 189 2.0 3.0 0.00 0.00 0.00 81 1004.4
20260509073912 56 313 2.0 4.0 0.00 0.00 0.00 81 1004.4
20260509073413 56 217 2.0 4.0 0.00 0.00 0.00 81 1004.5
20260509072914 56 200 3.0 4.0 0.00 0.00 0.00 81 1004.5
20260509072412 56 201 4.0 7.0 0.00 0.00 0.00 81 1004.6
20260509071912 56 189 3.0 6.0 0.00 0.00 0.00 81 1004.6
20260509071412 55 194 5.0 8.0 0.00 0.00 0.00 81 1004.8
20260509070912 55 186 4.0 8.0 0.00 0.00 0.00 81 1005.0
20260509070413 54 198 4.0 7.0 0.00 0.00 0.00 83 1005.3
20260509065913 53 187 3.0 5.0 0.00 0.00 0.00 82 1005.4
20260509065412 52 172 3.0 3.0 0.00 0.00 0.00 80 1005.1
20260509064912 52 136 0.0 1.0 0.00 0.00 0.00 77 1004.9
20260509064412 52 118 1.0 1.0 0.00 0.00 0.00 77 1004.9
20260509063912 52 134 2.0 3.0 0.00 0.00 0.00 76 1004.8
20260509063412 51 201 1.0 2.0 0.00 0.00 0.00 75 1004.8
20260509062912 51 150 1.0 2.0 0.00 0.00 0.00 74 1004.7
20260509062412 51 120 1.0 2.0 0.00 0.00 0.00 73 1004.6
20260509061913 51 138 2.0 3.0 0.00 0.00 0.00 71 1004.7
20260509061412 51 131 2.0 4.0 0.00 0.00 0.00 70 1004.8
20260509060912 51 138 2.0 2.0 0.00 0.00 0.00 67 1004.9
20260509060413 51 117 3.0 4.0 0.00 0.00 0.00 65 1004.9
20260509055912 51 128 2.0 3.0 0.00 0.00 0.00 63 1004.9
20260509055412 51 147 2.0 2.0 0.00 0.00 0.00 61 1005.0
20260509054912 51 145 2.0 3.0 0.00 0.00 0.00 59 1005.1
20260509054413 51 142 2.0 2.0 0.00 0.00 0.00 57 1005.1
20260509053913 51 189 2.0 3.0 0.00 0.00 0.00 56 1005.1
20260509053412 51 111 1.0 2.0 0.00 0.00 0.00 55 1005.2
20260509052912 51 163 2.0 2.0 0.00 0.00 0.00 54 1005.2
20260509052413 52 183 1.0 2.0 0.00 0.00 0.00 54 1005.3
20260509051912 52 163 2.0 2.0 0.00 0.00 0.00 53 1005.3
20260509051414 52 160 2.0 2.0 0.00 0.00 0.00 52 1005.2
20260509050913 52 154 2.0 4.0 0.00 0.00 0.00 52 1005.2
20260509050413 52 160 2.0 2.0 0.00 0.00 0.00 52 1005.2
20260509045914 52 152 2.0 2.0 0.00 0.00 0.00 51 1005.2
20260509045412 52 152 3.0 4.0 0.00 0.00 0.00 51 1005.2
20260509044912 52 127 2.0 2.0 0.00 0.00 0.00 51 1005.2
20260509044412 52 145 2.0 2.0 0.00 0.00 0.00 51 1005.2
20260509043912 52 131 2.0 2.0 0.00 0.00 0.00 50 1005.2
20260509043412 52 131 2.0 2.0 0.00 0.00 0.00 49 1005.3
20260509042913 52 139 2.0 2.0 0.00 0.00 0.00 48 1005.3
20260509042412 52 160 2.0 3.0 0.00 0.00 0.00 47 1005.4
20260509041912 52 164 2.0 2.0 0.00 0.00 0.00 47 1005.4
20260509041412 52 139 2.0 2.0 0.00 0.00 0.00 47 1005.5
20260509040916 52 178 1.0 2.0 0.00 0.00 0.00 47 1005.4
20260509040413 52 136 2.0 2.0 0.00 0.00 0.00 47 1005.5
20260509035912 52 133 2.0 2.0 0.00 0.00 0.00 47 1005.6
20260509035412 52 130 2.0 3.0 0.00 0.00 0.00 47 1005.6
20260509034912 52 139 2.0 2.0 0.00 0.00 0.00 47 1005.7
20260509034413 52 128 2.0 3.0 0.00 0.00 0.00 47 1005.8
20260509033912 52 177 2.0 2.0 0.00 0.00 0.00 47 1005.8
20260509033412 52 145 2.0 2.0 0.00 0.00 0.00 47 1005.8
20260509032912 52 180 2.0 2.0 0.00 0.00 0.00 46 1005.8
20260509032412 52 112 1.0 3.0 0.00 0.00 0.00 45 1005.8
20260509031913 52 170 1.0 2.0 0.00 0.00 0.00 45 1005.9
20260509031412 52 138 1.0 1.0 0.00 0.00 0.00 45 1006.0
20260509030914 52 136 2.0 2.0 0.00 0.00 0.00 44 1006.0
20260509030412 52 131 1.0 1.0 0.00 0.00 0.00 43 1006.1
20260509025912 53 138 0.0 1.0 0.00 0.00 0.00 43 1006.1
20260509025412 53 137 1.0 2.0 0.00 0.00 0.00 42 1006.2
20260509024913 53 116 1.0 2.0 0.00 0.00 0.00 41 1006.3
20260509024412 53 161 1.0 1.0 0.00 0.00 0.00 41 1006.3
20260509023913 53 138 1.0 2.0 0.00 0.00 0.00 40 1006.4
20260509023412 53 149 1.0 1.0 0.00 0.00 0.00 40 1006.4
20260509022912 53 128 1.0 1.0 0.00 0.00 0.00 39 1006.6
20260509022412 53 139 1.0 1.0 0.00 0.00 0.00 39 1006.6
20260509021912 53 104 0.0 1.0 0.00 0.00 0.00 38 1006.7
20260509021412 54 126 1.0 1.0 0.00 0.00 0.00 37 1006.7
20260509020912 54 138 1.0 1.0 0.00 0.00 0.00 37 1006.6
20260509020412 54 132 2.0 2.0 0.00 0.00 0.00 37 1006.6
20260509015912 54 147 1.0 1.0 0.00 0.00 0.00 36 1006.4
20260509015412 54 135 0.0 1.0 0.00 0.00 0.00 36 1006.4
20260509014912 54 116 1.0 2.0 0.00 0.00 0.00 36 1006.4
20260509014412 54 125 1.0 1.0 0.00 0.00 0.00 36 1006.4
20260509013912 54 137 1.0 1.0 0.00 0.00 0.00 36 1006.4
20260509013412 55 123 0.0 0.0 0.00 0.00 0.00 35 1006.4
20260509012912 55 130 0.0 1.0 0.00 0.00 0.00 35 1006.4
20260509012412 55 0 0.0 0.0 0.00 0.00 0.00 35 1006.4
20260509011913 56 136 1.0 1.0 0.00 0.00 0.00 33 1006.3
20260509011413 56 38 0.0 1.0 0.00 0.00 0.00 33 1006.3
20260509010912 56 93 1.0 1.0 0.00 0.00 0.00 32 1006.4
20260509010412 57 140 0.0 0.0 0.00 0.00 0.00 31 1006.4
20260509005912 57 0 0.0 0.0 0.00 0.00 0.00 31 1006.4
20260509005412 57 0 0.0 0.0 0.00 0.00 0.00 31 1006.3
20260509004913 58 0 0.0 0.0 0.00 0.00 0.00 30 1006.4
20260509004412 58 0 0.0 0.0 0.00 0.00 0.00 29 1006.4
20260509003913 59 112 0.0 1.0 0.00 0.00 0.00 28 1006.3
20260509003412 59 0 0.0 0.0 0.00 0.00 0.00 27 1006.4
20260509002913 59 0 0.0 0.0 0.00 0.00 0.00 27 1006.4
20260509002413 60 107 1.0 1.0 0.00 0.00 0.00 26 1006.4
20260509001912 60 0 0.0 0.0 0.00 0.00 0.00 25 1006.6
20260509001414 60 99 2.0 4.0 0.00 0.00 0.00 24 1006.4
20260509000912 61 123 1.0 1.0 0.00 0.00 0.00 25 1006.6
20260509000412 61 196 1.0 2.0 0.00 0.00 0.00 23 1006.6
20260508235912 61 211 2.0 2.0 0.00 0.00 0.00 24 1006.6
20260508235413 62 164 1.0 2.0 0.00 0.00 0.00 23 1006.8
20260508234912 62 187 1.0 2.0 0.00 0.00 0.00 22 1006.9
20260508234412 64 122 2.0 2.0 0.00 0.00 0.00 21 1006.9
20260508233912 65 0 0.0 0.0 0.00 0.00 0.00 21 1007.0
20260508233412 65 166 2.0 3.0 0.00 0.00 0.00 19 1007.1
20260508232913 65 228 1.0 2.0 0.00 0.00 0.00 20 1007.2
20260508232413 65 143 2.0 3.0 0.00 0.00 0.00 21 1007.2
20260508231912 65 163 1.0 2.0 0.00 0.00 0.00 20 1007.3
20260508231413 65 201 1.0 1.0 0.00 0.00 0.00 20 1007.3
20260508230912 66 174 3.0 4.0 0.00 0.00 0.00 19 1007.4
20260508230412 66 143 2.0 2.0 0.00 0.00 0.00 21 1007.4
20260508225912 66 352 2.0 2.0 0.00 0.00 0.00 20 1007.5
20260508225412 66 197 2.0 2.0 0.00 0.00 0.00 21 1007.5
20260508224912 66 91 2.0 2.0 0.00 0.00 0.00 20 1007.5
20260508224417 66 316 2.0 3.0 0.00 0.00 0.00 20 1007.5
20260508223913 66 200 2.0 4.0 0.00 0.00 0.00 20 1007.5
20260508223413 65 262 1.0 2.0 0.00 0.00 0.00 22 1007.5
20260508222912 65 216 2.0 5.0 0.00 0.00 0.00 23 1007.5
20260508222412 65 177 3.0 6.0 0.00 0.00 0.00 21 1007.5
20260508221914 65 218 2.0 3.0 0.00 0.00 0.00 21 1007.6
20260508221413 65 208 2.0 3.0 0.00 0.00 0.00 21 1007.6
20260508220912 65 183 3.0 4.0 0.00 0.00 0.00 22 1007.6
20260508220415 64 211 1.0 2.0 0.00 0.00 0.00 24 1007.8
20260508215912 65 166 2.0 4.0 0.00 0.00 0.00 23 1007.8
20260508215412 65 173 3.0 3.0 0.00 0.00 0.00 24 1007.7
20260508214913 65 190 2.0 5.0 0.00 0.00 0.00 24 1007.7
20260508214412 65 187 2.0 6.0 0.00 0.00 0.00 26 1007.7
20260508213913 65 199 3.0 7.0 0.00 0.00 0.00 25 1007.7
20260508213412 65 269 3.0 4.0 0.00 0.00 0.00 26 1007.7
20260508212913 65 197 4.0 5.0 0.00 0.00 0.00 24 1007.7
20260508212413 65 192 1.0 2.0 0.00 0.00 0.00 27 1007.8
20260508211918 64 223 1.0 2.0 0.00 0.00 0.00 27 1007.9
20260508211412 64 305 3.0 3.0 0.00 0.00 0.00 27 1007.9
20260508210913 64 285 2.0 2.0 0.00 0.00 0.00 29 1008.0
20260508210413 63 313 2.0 4.0 0.00 0.00 0.00 28 1008.0
20260508205913 63 268 2.0 2.0 0.00 0.00 0.00 28 1008.0
20260508205412 63 228 2.0 4.0 0.00 0.00 0.00 29 1008.0
20260508204914 63 135 2.0 3.0 0.00 0.00 0.00 28 1008.1
20260508204413 63 315 2.0 4.0 0.00 0.00 0.00 28 1008.2
20260508203914 64 238 2.0 3.0 0.00 0.00 0.00 27 1008.2
20260508203414 64 302 3.0 5.0 0.00 0.00 0.00 28 1008.3
20260508202913 64 206 2.0 3.0 0.00 0.00 0.00 29 1008.4
20260508202414 64 181 4.0 6.0 0.00 0.00 0.00 27 1008.4
20260508201912 64 179 3.0 5.0 0.00 0.00 0.00 27 1008.5
20260508201413 64 345 4.0 6.0 0.00 0.00 0.00 29 1008.5
20260508200913 64 309 1.0 1.0 0.00 0.00 0.00 29 1008.6
20260508200413 64 224 3.0 5.0 0.00 0.00 0.00 29 1008.7
20260508195912 63 239 2.0 4.0 0.00 0.00 0.00 30 1008.7
20260508195420 63 266 2.0 2.0 0.00 0.00 0.00 28 1008.8
20260508194912 63 189 4.0 6.0 0.00 0.00 0.00 28 1008.9
20260508194413 63 196 2.0 4.0 0.00 0.00 0.00 31 1008.9
20260508193913 63 191 3.0 5.0 0.00 0.00 0.00 32 1008.9
20260508193416 62 175 3.0 5.0 0.00 0.00 0.00 31 1009.0
20260508192912 63 178 2.0 4.0 0.00 0.00 0.00 32 1009.1
20260508192416 63 180 3.0 5.0 0.00 0.00 0.00 31 1009.1
20260508191914 63 314 2.0 3.0 0.00 0.00 0.00 35 1009.1
20260508191414 62 351 2.0 4.0 0.00 0.00 0.00 34 1009.2
20260508190912 62 356 2.0 6.0 0.00 0.00 0.00 35 1009.2
20260508190412 62 233 2.0 2.0 0.00 0.00 0.00 34 1009.3
20260508185914 62 224 2.0 2.0 0.00 0.00 0.00 32 1009.3
20260508185416 62 216 2.0 4.0 0.00 0.00 0.00 32 1009.3
20260508184914 62 318 4.0 5.0 0.00 0.00 0.00 32 1009.3
20260508184416 62 179 2.0 3.0 0.00 0.00 0.00 31 1009.4
20260508183913 62 256 2.0 5.0 0.00 0.00 0.00 31 1009.4
20260508183417 62 353 2.0 5.0 0.00 0.00 0.00 30 1009.4
20260508182912 62 146 2.0 2.0 0.00 0.00 0.00 29 1009.5
20260508182414 62 192 2.0 4.0 0.00 0.00 0.00 31 1009.6
20260508181913 62 197 3.0 4.0 0.00 0.00 0.00 28 1009.6
20260508181412 62 257 3.0 4.0 0.00 0.00 0.00 31 1009.6
20260508180913 62 61 2.0 2.0 0.00 0.00 0.00 30 1009.6
20260508180413 61 160 3.0 4.0 0.00 0.00 0.00 30 1009.7
20260508175913 61 128 2.0 4.0 0.00 0.00 0.00 30 1009.7
20260508175414 62 4 3.0 5.0 0.00 0.00 0.00 30 1009.7
20260508174916 61 172 1.0 3.0 0.00 0.00 0.00 32 1009.8
20260508174414 61 309 2.0 2.0 0.00 0.00 0.00 31 1009.9
20260508173916 61 262 2.0 2.0 0.00 0.00 0.00 31 1009.9
20260508173412 61 346 2.0 4.0 0.00 0.00 0.00 30 1010.0
20260508172916 61 10 4.0 6.0 0.00 0.00 0.00 28 1010.1
20260508172416 61 249 1.0 2.0 0.00 0.00 0.00 29 1010.1
20260508171916 61 186 2.0 4.0 0.00 0.00 0.00 27 1010.2
20260508171415 61 145 2.0 3.0 0.00 0.00 0.00 30 1010.2
20260508170915 61 8 3.0 5.0 0.00 0.00 0.00 26 1010.3
20260508170413 61 61 0.0 2.0 0.00 0.00 0.00 30 1010.3
20260508165913 61 132 1.0 2.0 0.00 0.00 0.00 29 1010.3
20260508165416 61 217 2.0 2.0 0.00 0.00 0.00 29 1010.4
20260508164917 61 332 4.0 4.0 0.00 0.00 0.00 28 1010.4
20260508164412 61 338 3.0 5.0 0.00 0.00 0.00 28 1010.5
20260508163917 61 277 1.0 2.0 0.00 0.00 0.00 32 1010.7
20260508163414 61 343 2.0 3.0 0.00 0.00 0.00 30 1010.7
20260508162913 61 346 2.0 5.0 0.00 0.00 0.00 28 1010.7
20260508162416 61 190 0.0 1.0 0.00 0.00 0.00 29 1010.8
20260508161914 61 186 2.0 4.0 0.00 0.00 0.00 28 1010.8
20260508161417 61 8 2.0 4.0 0.00 0.00 0.00 30 1010.8
20260508160918 60 216 1.0 3.0 0.00 0.00 0.00 29 1010.8
20260508160416 60 108 2.0 2.0 0.00 0.00 0.00 32 1010.8
20260508155913 60 210 2.0 3.0 0.00 0.00 0.00 29 1010.8
20260508155415 60 190 2.0 3.0 0.00 0.00 0.00 29 1010.8
20260508154916 60 199 3.0 4.0 0.00 0.00 0.00 32 1010.8
20260508154416 59 213 2.0 3.0 0.00 0.00 0.00 31 1010.8
20260508153916 59 142 2.0 3.0 0.00 0.00 0.00 31 1010.7
20260508153417 59 349 3.0 4.0 0.00 0.00 0.00 33 1010.7
20260508152916 59 210 2.0 4.0 0.00 0.00 0.00 34 1010.8
20260508152417 59 194 1.0 2.0 0.00 0.00 0.00 33 1010.7
20260508151913 59 211 2.0 3.0 0.00 0.00 0.00 35 1010.8
20260508151414 59 168 2.0 2.0 0.00 0.00 0.00 36 1010.8
20260508150913 58 30 0.0 1.0 0.00 0.00 0.00 42 1010.9
20260508150413 58 166 3.0 4.0 0.00 0.00 0.00 42 1010.9
20260508145914 58 158 1.0 1.0 0.00 0.00 0.00 48 1011.0
20260508145413 57 148 2.0 3.0 0.00 0.00 0.00 50 1011.0
20260508144914 57 339 3.0 3.0 0.00 0.00 0.00 48 1011.0
20260508144414 56 163 2.0 3.0 0.00 0.00 0.00 50 1011.1
20260508143913 56 235 2.0 2.0 0.00 0.00 0.00 50 1011.1
20260508143415 56 140 2.0 2.0 0.00 0.00 0.00 54 1011.1
20260508142912 55 213 2.0 2.0 0.00 0.00 0.00 55 1011.1
20260508142414 55 183 2.0 3.0 0.00 0.00 0.00 58 1011.0
20260508141913 54 212 1.0 2.0 0.00 0.00 0.00 58 1011.0
20260508141415 54 179 1.0 2.0 0.00 0.00 0.00 62 1011.0
20260508140913 53 105 2.0 3.0 0.00 0.00 0.00 62 1011.0
20260508140414 53 121 2.0 3.0 0.00 0.00 0.00 64 1011.0
20260508135914 52 183 2.0 3.0 0.00 0.00 0.00 66 1011.1
20260508135412 52 182 2.0 2.0 0.00 0.00 0.00 69 1011.1
20260508134912 51 186 2.0 4.0 0.00 0.00 0.00 69 1011.2
20260508134413 51 168 1.0 2.0 0.00 0.00 0.00 70 1011.1
20260508133912 51 269 0.0 1.0 0.00 0.00 0.00 74 1011.1
20260508133415 50 185 2.0 2.0 0.00 0.00 0.00 75 1011.2
20260508132915 50 162 3.0 3.0 0.00 0.00 0.00 76 1011.2
20260508132413 50 154 2.0 2.0 0.00 0.00 0.00 76 1011.3
20260508131914 49 164 2.0 3.0 0.00 0.00 0.00 77 1011.4
20260508131412 49 202 2.0 3.0 0.00 0.00 0.00 77 1011.4
20260508130914 48 190 2.0 2.0 0.00 0.00 0.00 78 1011.5
20260508130413 47 161 1.0 2.0 0.00 0.00 0.00 79 1011.6
20260508125916 47 190 0.0 2.0 0.00 0.00 0.00 80 1011.6
20260508125416 46 116 0.0 0.0 0.00 0.00 0.00 81 1011.6
20260508124916 45 192 1.0 1.0 0.00 0.00 0.00 83 1011.7
20260508124416 45 191 0.0 0.0 0.00 0.00 0.00 86 1012.0
20260508123912 44 205 0.0 1.0 0.00 0.00 0.00 87 1012.1
20260508123412 43 0 0.0 0.0 0.00 0.00 0.00 89 1012.3
20260508122912 42 0 0.0 0.0 0.00 0.00 0.00 91 1012.5
20260508122414 42 195 1.0 2.0 0.00 0.00 0.00 91 1012.6
20260508121912 41 0 0.0 0.0 0.00 0.00 0.00 92 1012.8
20260508121412 40 176 0.0 1.0 0.00 0.00 0.00 93 1012.8
20260508120914 40 0 0.0 0.0 0.00 0.00 0.00 93 1012.9
20260508120414 39 197 1.0 2.0 0.00 0.00 0.00 94 1012.8
20260508115913 38 194 1.0 2.0 0.00 0.00 0.00 93 1012.7
20260508115414 37 0 0.0 0.0 0.00 0.00 0.00 93 1012.6
20260508114912 37 201 0.0 1.0 0.00 0.00 0.00 93 1012.6
20260508114412 36 0 0.0 0.0 0.00 0.00 0.00 93 1012.6
20260508113912 36 0 0.0 0.0 0.00 0.00 0.00 93 1012.6
20260508113414 35 0 0.0 0.0 0.00 0.00 0.00 93 1012.5
20260508112913 35 0 0.0 0.0 0.00 0.00 0.00 92 1012.5
20260508112412 35 0 0.0 0.0 0.00 0.00 0.00 92 1012.5
20260508111912 35 0 0.0 0.0 0.00 0.00 0.00 92 1012.5
20260508111414 35 0 0.0 0.0 0.00 0.00 0.00 92 1012.4
20260508110913 35 0 0.0 0.0 0.00 0.00 0.00 92 1012.4
20260508110416 35 144 1.0 1.0 0.00 0.00 0.00 92 1012.4
20260508105913 35 0 0.0 0.0 0.00 0.00 0.00 91 1012.3
20260508105412 35 0 0.0 0.0 0.00 0.00 0.00 91 1012.3
20260508104914 35 0 0.0 0.0 0.00 0.00 0.00 91 1012.3
20260508104412 35 0 0.0 0.0 0.00 0.00 0.00 91 1012.4
20260508103915 35 141 1.0 1.0 0.00 0.00 0.00 91 1012.3
20260508103413 35 0 0.0 0.0 0.00 0.00 0.00 91 1012.1
20260508102914 35 0 0.0 0.0 0.00 0.00 0.00 90 1012.1
20260508102417 35 0 0.0 0.0 0.00 0.00 0.00 90 1012.0
20260508101913 35 0 0.0 0.0 0.00 0.00 0.00 90 1011.9
20260508101414 35 0 0.0 0.0 0.00 0.00 0.00 90 1011.9
20260508100916 35 0 0.0 0.0 0.00 0.00 0.00 90 1011.9
20260508100416 35 0 0.0 0.0 0.00 0.00 0.00 90 1012.0
20260508095913 35 0 0.0 0.0 0.00 0.00 0.00 90 1012.0
20260508095412 35 36 0.0 0.0 0.00 0.00 0.00 90 1012.0
20260508094912 35 15 1.0 1.0 0.00 0.00 0.00 90 1012.0
20260508094412 35 0 0.0 0.0 0.00 0.00 0.00 89 1012.0
20260508093912 35 0 0.0 0.0 0.00 0.00 0.00 89 1011.9
20260508093412 36 0 0.0 0.0 0.00 0.00 0.00 89 1011.9
20260508092430 36 0 0.0 0.0 0.00 0.00 0.00 89 1011.9
20260508091913 36 0 0.0 0.0 0.00 0.00 0.00 89 1011.9
20260508091414 36 0 0.0 0.0 0.00 0.00 0.00 89 1012.0
20260508090913 36 14 0.0 0.0 0.00 0.00 0.00 89 1012.1
20260508090412 36 4 2.0 2.0 0.00 0.00 0.00 89 1012.0
20260508085912 36 0 0.0 0.0 0.00 0.00 0.00 88 1012.0
20260508085412 37 0 0.0 0.0 0.00 0.00 0.00 88 1011.9
20260508084914 37 139 1.0 1.0 0.00 0.00 0.00 88 1011.9
20260508084415 37 148 1.0 1.0 0.00 0.00 0.00 88 1011.9
20260508083423 37 0 0.0 0.0 0.00 0.00 0.00 88 1011.9
20260508082912 37 143 1.0 1.0 0.00 0.00 0.00 88 1011.9
20260508082414 37 0 0.0 0.0 0.00 0.00 0.00 87 1011.7
20260508081912 37 0 0.0 0.0 0.00 0.00 0.00 87 1011.9
20260508081414 37 0 0.0 0.0 0.00 0.00 0.00 87 1011.9
20260508080912 37 0 0.0 0.0 0.00 0.00 0.00 87 1011.9
20260508080412 37 0 0.0 0.0 0.00 0.00 0.00 87 1011.7
20260508075912 37 0 0.0 0.0 0.00 0.00 0.00 86 1011.7
20260508075414 37 0 0.0 0.0 0.00 0.00 0.00 86 1011.7